Hourly Weather Roundup
Issued by NWS Central Illinois

Home | Current Version | Previous Version | Text Only | Print | Product List | Glossary On
Versions: 1 2 3 4 5 6 7 8 9 10 11 12 13 14 15 16 17 18 19 20 21 22 23 24 25 26 27 28 29 30 31 32 33 34 35 36 37 38 39 40 41 42 43 44 45 46 47 48 49 50
000
NZUS43 KILX 040410
HWRILX

AREA WEATHER ROUNDUP
NATIONAL WEATHER SERVICE, LINCOLN IL
1100 PM CDT TUE MAY 03 2016


CITY           SKY/WX    TMP DP  RH WIND       PRES   REMARKS
BLOOMINGTON    MOCLDY    55  45  69 SW10      29.80F
CHAMPAIGN      PTCLDY    54  45  71 SW13      29.82F
DANVILLE       CLOUDY    55  45  69 SW13      29.78F
DECATUR        PTCLDY    55  44  66 SW10      29.84F
EFFINGHAM      CLEAR     52  46  80 S6        29.89F
FLORA          CLOUDY    54  46  75 W6        29.90F
GALESBURG      CLOUDY    56  45  65 SW10      29.75F
JACKSONVILLE   PTCLDY    55  43  63 SW9       29.83F
LACON          CLOUDY    58  40  50 SW9       29.74F
LAWRENCEVILLE  CLOUDY    56  46  69 W7        29.88F
LITCHFIELD     PTCLDY    51  43  73 SW9       29.87F
$$


CITY           SKY/WX    TMP DP  RH WIND       PRES   REMARKS
LINCOLN        PTCLDY    57  46  65 SW7       29.81F
MACOMB         CLOUDY    57  45  64 SW13      29.80F
MATTOON        MOCLDY    54  44  69 SW8       29.84F
MT CARMEL AP   CLOUDY    55  46  71 SW7       29.88F
OLNEY-NOBLE AP CLEAR     54  45  71 W5        29.90S
PARIS          MOCLDY    53  48  83 SW5       29.84F
PEORIA         CLOUDY    58  41  53 SW10      29.78F
PONTIAC        CLOUDY    59  42  54 SW12G17   29.76F
RANTOUL        CLOUDY    56  47  71 SW10      29.80F
ROBINSON       PTCLDY    54  47  75 W9        29.88F
SPRINGFIELD    PTCLDY    57  44  62 SW10      29.83F
TAYLORVILLE    MOCLDY    54  44  69 SE12      29.85F
$$

...REGIONAL REPORTS...


CITY           SKY/WX    TMP DP  RH WIND       PRES   REMARKS
CHICAGO O`HARE CLOUDY    60  40  47 SW10      29.69F
KANKAKEE       CLOUDY    55  42  62 SW9       29.76F
MOLINE         PTCLDY    59  42  53 SW12      29.70F
MOUNT STERLING CLOUDY    56  43  60 SW8       29.82F
MOUNT VERNON   PTCLDY    48  43  81 CALM      29.91F
PITTSFIELD     CLEAR     56  44  62 SW8       29.85F
QUINCY         CLOUDY    57  46  66 SW8       29.83F
ROCKFORD       CLOUDY    59  42  53 SW9       29.69F
$$


CITY           SKY/WX    TMP DP  RH WIND       PRES   REMARKS
BURLINGTON     CLOUDY    57  45  64 SW12      29.76F
CEDAR RAPIDS   CLOUDY    57  47  69 SW13      29.69F
DES MOINES     LGT RAIN  59  46  62 W10       29.78F
KIRKSVILLE     CLEAR     55  41  59 SW7       29.85F
OTTUMWA        CLEAR     57  44  62 SW17      29.76F
ST LOUIS       PTCLDY    58  42  55 SW8       29.89F
$$


CITY           SKY/WX    TMP DP  RH WIND       PRES   REMARKS
TERRE HAUTE    PTCLDY    54  45  71 SW7       29.85F
EVANSVILLE     PTCLDY    53  43  68 W5        29.91F
INDIANAPOLIS   MOCLDY    54  42  64 SW9       29.82F
LAFAYETTE      CLOUDY    53  44  71 SW5       29.79F
MADISON        LGT RAIN  49  46  90 N6        29.69F
MILWAUKEE      CLOUDY    59  41  51 SW10      29.62F
$$






USA.gov is the U.S. government's official web portal to all federal, state and local government web resources and services.